When you browse on this site, cookies collect data to enhance your experience and personalize the content and advertising you see.
Visit our Privacy Policy to learn more. By continuing to use the site, you agree to this use of cookies and data.
  • In Lithuania
  • List of Countries
  • For 7 days
  • Water Temperature
  • Satellite Maps
  • Weather Map
  • Weather Widgets
  • user-avatar
    Login

    Hourly Weather Shusha

    Today, 24 June, Monday

    Time Temperature Precipitation Wind Pressure Humidity
    00:00 +20°C° 0 mm 2 mps 660 mmHg 68%
    01:00 +20°C° 0 mm 2 mps 660 mmHg 68%
    02:00 +21°C° 0 mm 1 mps 660 mmHg 69%
    03:00 +20°C° 0 mm 1 mps 660 mmHg 68%
    04:00 +21°C° 0 mm 1 mps 660 mmHg 68%
    05:00 +22°C° 0 mm 1 mps 660 mmHg 68%
    06:00 +23°C° 0 mm 1 mps 661 mmHg 67%
    07:00 +24°C° 0 mm 1 mps 661 mmHg 63%
    08:00 +25°C° 0 mm 2 mps 661 mmHg 58%
    09:00 +27°C° 0 mm 2 mps 662 mmHg 50%
    10:00 +27°C° 0 mm 2 mps 662 mmHg 49%
    11:00 +28°C° 0 mm 2 mps 662 mmHg 48%
    12:00 +29°C° 0 mm 3 mps 661 mmHg 47%
    13:00 +29°C° 0 mm 3 mps 661 mmHg 47%
    14:00 +29°C° 0 mm 2 mps 661 mmHg 47%
    15:00 +30°C° 0 mm 2 mps 660 mmHg 48%
    16:00 +29°C° 0 mm 2 mps 660 mmHg 50%
    17:00 +28°C° 0 mm 2 mps 660 mmHg 53%
    18:00 +28°C° 0 mm 1 mps 660 mmHg 56%
    19:00 +26°C° 0 mm 1 mps 660 mmHg 58%
    20:00 +25°C° 0 mm 1 mps 660 mmHg 60%
    21:00 +23°C° 0 mm 2 mps 660 mmHg 62%
    22:00 +21°C° 0 mm 2 mps 660 mmHg 62%
    23:00 +21°C° 0 mm 2 mps 660 mmHg 61%

    Tomorrow, 25 June, Tuesday

    Time Temperature Precipitation Wind Pressure Humidity
    00:00 +21°C° 0 mm 2 mps 660 mmHg 61%
    01:00 +20°C° 0 mm 2 mps 660 mmHg 59%
    02:00 +20°C° 0 mm 2 mps 660 mmHg 57%
    03:00 +20°C° 0 mm 2 mps 660 mmHg 55%
    04:00 +20°C° 0 mm 2 mps 660 mmHg 54%
    05:00 +21°C° 0 mm 2 mps 660 mmHg 53%
    06:00 +23°C° 0 mm 2 mps 660 mmHg 53%
    07:00 +24°C° 0 mm 2 mps 661 mmHg 46%
    08:00 +26°C° 0 mm 1 mps 662 mmHg 38%
    09:00 +28°C° 0 mm 1 mps 662 mmHg 31%
    10:00 +28°C° 0 mm 2 mps 662 mmHg 31%
    11:00 +29°C° 0 mm 2 mps 662 mmHg 30%
    12:00 +30°C° 0 mm 2 mps 662 mmHg 30%
    13:00 +30°C° 0 mm 2 mps 662 mmHg 30%
    14:00 +30°C° 0 mm 2 mps 662 mmHg 31%
    15:00 +31°C° 0 mm 2 mps 662 mmHg 31%
    16:00 +30°C° 0 mm 2 mps 661 mmHg 35%
    17:00 +29°C° 0 mm 2 mps 661 mmHg 38%
    18:00 +29°C° 0 mm 1 mps 661 mmHg 42%
    19:00 +27°C° 0 mm 1 mps 661 mmHg 43%
    20:00 +25°C° 0 mm 1 mps 661 mmHg 45%
    21:00 +23°C° 0 mm 1 mps 661 mmHg 46%
    22:00 +23°C° 0 mm 2 mps 661 mmHg 46%
    23:00 +21°C° 0 mm 2 mps 661 mmHg 45%

    Day after tomorrow, 26 June, Wednesday

    Time Temperature Precipitation Wind Pressure Humidity
    00:00 +21°C° 0 mm 2 mps 661 mmHg 45%
    01:00 +21°C° 0 mm 2 mps 661 mmHg 44%
    02:00 +21°C° 0 mm 2 mps 661 mmHg 42%
    03:00 +20°C° 0 mm 2 mps 660 mmHg 41%
    04:00 +21°C° 0 mm 2 mps 661 mmHg 42%
    05:00 +22°C° 0 mm 1 mps 661 mmHg 43%
    06:00 +23°C° 0 mm 1 mps 661 mmHg 43%
    07:00 +25°C° 0 mm 2 mps 662 mmHg 38%
    08:00 +26°C° 0 mm 2 mps 662 mmHg 32%
    09:00 +28°C° 0 mm 2 mps 663 mmHg 26%
    10:00 +29°C° 0 mm 2 mps 663 mmHg 25%
    11:00 +30°C° 0 mm 2 mps 663 mmHg 25%
    12:00 +30°C° 0 mm 3 mps 663 mmHg 25%
    13:00 +31°C° 0 mm 3 mps 662 mmHg 26%
    14:00 +31°C° 0 mm 3 mps 662 mmHg 27%
    15:00 +31°C° 0 mm 3 mps 662 mmHg 29%
    16:00 +30°C° 0 mm 3 mps 661 mmHg 33%
    17:00 +29°C° 0 mm 3 mps 661 mmHg 38%
    18:00 +28°C° 0 mm 3 mps 661 mmHg 43%
    19:00 +26°C° 0 mm 3 mps 660 mmHg 48%
    20:00 +24°C° 0 mm 2 mps 660 mmHg 53%
    21:00 +21°C° 0 mm 2 mps 660 mmHg 58%
    22:00 +20°C° 0 mm 2 mps 660 mmHg 58%
    23:00 +20°C° 0 mm 2 mps 659 mmHg 58%

    27 June, Thursday

    Time Temperature Precipitation Wind Pressure Humidity
    00:00 +19°C° 0 mm 2 mps 659 mmHg 59%
    01:00 +19°C° 0 mm 2 mps 659 mmHg 60%
    02:00 +19°C° 0 mm 2 mps 659 mmHg 62%
    03:00 +18°C° 0 mm 2 mps 658 mmHg 63%
    04:00 +19°C° 0.2 mm 2 mps 659 mmHg 64%
    05:00 +20°C° 0.2 mm 1 mps 659 mmHg 64%
    06:00 +21°C° 0.2 mm 1 mps 659 mmHg 65%
    07:00 +21°C° 0.2 mm 2 mps 659 mmHg 60%
    08:00 +23°C° 0.2 mm 2 mps 659 mmHg 56%
    09:00 +24°C° 0.2 mm 3 mps 660 mmHg 51%
    10:00 +25°C° 0 mm 3 mps 659 mmHg 49%
    11:00 +26°C° 0 mm 4 mps 659 mmHg 48%
    12:00 +27°C° 0 mm 4 mps 659 mmHg 46%
    13:00 +27°C° 0 mm 4 mps 659 mmHg 46%
    14:00 +28°C° 0 mm 4 mps 658 mmHg 45%
    15:00 +28°C° 0 mm 4 mps 658 mmHg 45%
    16:00 +27°C° 0.2 mm 4 mps 658 mmHg 49%
    17:00 +26°C° 0.2 mm 3 mps 657 mmHg 52%
    18:00 +25°C° 0.2 mm 3 mps 657 mmHg 56%
    19:00 +23°C° 0.2 mm 2 mps 657 mmHg 60%
    20:00 +20°C° 0.2 mm 2 mps 657 mmHg 65%
    21:00 +20°C° 0.2 mm 1 mps 657 mmHg 69%
    22:00 +20°C° 0.2 mm 1 mps 656 mmHg 70%
    23:00 +20°C° 0.2 mm 1 mps 656 mmHg 72%

    28 June, Friday

    Time Temperature Precipitation Wind Pressure Humidity
    00:00 +18°C° 0.2 mm 2 mps 656 mmHg 73%
    01:00 +19°C° 0.1 mm 1 mps 656 mmHg 74%
    02:00 +19°C° 0.1 mm 1 mps 656 mmHg 75%
    03:00 +16°C° 0.1 mm 0 mps 655 mmHg 76%
    04:00 +19°C° 0.1 mm 1 mps 655 mmHg 76%
    05:00 +19°C° 0.1 mm 1 mps 655 mmHg 75%
    06:00 +19°C° 0.1 mm 1 mps 655 mmHg 74%
    07:00 +21°C° 0 mm 1 mps 656 mmHg 68%
    08:00 +21°C° 0 mm 2 mps 656 mmHg 62%
    09:00 +23°C° 0 mm 2 mps 656 mmHg 57%
    10:00 +24°C° 0 mm 2 mps 655 mmHg 54%
    11:00 +25°C° 0 mm 2 mps 655 mmHg 51%
    12:00 +26°C° 0 mm 2 mps 655 mmHg 49%
    13:00 +27°C° 0 mm 2 mps 655 mmHg 48%
    14:00 +27°C° 0 mm 3 mps 654 mmHg 47%
    15:00 +27°C° 0 mm 3 mps 654 mmHg 45%
    16:00 +26°C° 0.2 mm 2 mps 653 mmHg 49%
    17:00 +26°C° 0.2 mm 2 mps 653 mmHg 52%
    18:00 +25°C° 0.2 mm 2 mps 653 mmHg 55%
    19:00 +23°C° 0.2 mm 1 mps 653 mmHg 59%
    20:00 +22°C° 0.2 mm 1 mps 653 mmHg 62%
    21:00 +20°C° 0.2 mm 1 mps 653 mmHg 66%
    22:00 +20°C° 0.3 mm 1 mps 653 mmHg 68%
    23:00 +20°C° 0.3 mm 1 mps 653 mmHg 70%

    29 June, Saturday

    Time Temperature Precipitation Wind Pressure Humidity
    00:00 +20°C° 0.3 mm 1 mps 653 mmHg 72%
    01:00 +20°C° 0 mm 1 mps 653 mmHg 73%
    02:00 +19°C° 0 mm 1 mps 653 mmHg 74%
    03:00 +19°C° 0 mm 1 mps 652 mmHg 75%
    04:00 +20°C° 0 mm 1 mps 653 mmHg 73%
    05:00 +20°C° 0 mm 1 mps 653 mmHg 71%
    06:00 +21°C° 0 mm 1 mps 653 mmHg 69%
    07:00 +22°C° 0 mm 1 mps 653 mmHg 64%
    08:00 +24°C° 0 mm 1 mps 653 mmHg 60%
    09:00 +25°C° 0 mm 2 mps 654 mmHg 55%
    10:00 +25°C° 0.1 mm 2 mps 654 mmHg 53%
    11:00 +26°C° 0.1 mm 2 mps 654 mmHg 52%
    12:00 +27°C° 0.1 mm 3 mps 654 mmHg 50%
    13:00 +27°C° 0.5 mm 3 mps 653 mmHg 50%
    14:00 +27°C° 0.5 mm 3 mps 653 mmHg 50%
    15:00 +28°C° 0.5 mm 3 mps 653 mmHg 50%
    16:00 +27°C° 0.7 mm 3 mps 653 mmHg 54%
    17:00 +26°C° 0.7 mm 3 mps 653 mmHg 59%
    18:00 +25°C° 0.7 mm 2 mps 653 mmHg 63%
    19:00 +23°C° 2 mm 2 mps 653 mmHg 71%
    20:00 +20°C° 2 mm 2 mps 654 mmHg 79%
    21:00 +20°C° 2 mm 1 mps 654 mmHg 87%
    22:00 +19°C° 0.2 mm 1 mps 654 mmHg 87%
    23:00 +19°C° 0.2 mm 1 mps 654 mmHg 87%
    Show more